Craiova, Romania

11:04 AM EET on January 20, 2017 (GMT +0200)
Craiova

Weather History for LRCV - August, 2013

Change the Weather History Date:

Monday, August 26, 2013

  Actual Average Record
Temperature  
Mean Temperature 76 °F -  
Max Temperature 89 °F 77 °F - ()
Min Temperature 62 °F 54 °F - ()
Cooling Degree Days 10    
Growing Degree Days 26 (Base 50)    
Moisture  
Dew Point 60 °F    
Average Humidity 59    
Maximum Humidity 94    
Minimum Humidity 23    
Precipitation  
Precipitation 0.35 in 0.05 in - ()
Sea Level Pressure  
Sea Level Pressure 29.87 in    
Wind  
Wind Speed 7 mph ()    
Max Wind Speed 16 mph    
Max Gust Speed -    
Visibility 6.1 miles    
Events Rain , Thunderstorm    
T = Trace of Precipitation, MM = Missing Value Source: Averaged Metar Reports

Daily Weather History Graph

Daily Weather History Graph

Search for Another Location

Airport or City:

Trip Planner

Search our weather history database for the weather conditions in past years. The results will help you decide how hot, cold, wet, or windy it might be!

Date:

Astronomy

Aug. 26, 2013 Rise Set
Actual Time 6:40 AM EEST 8:11 PM EEST
Civil Twilight 6:09 AM EEST 8:41 PM EEST
Nautical Twilight 5:33 AM EEST 9:18 PM EEST
Astronomical Twilight 4:53 AM EEST 9:57 PM EEST
Moon 10:53 PM EEST (8/26) 12:38 PM EEST (8/26)
Length of Visible Light 14h 31m
Length of Day
13h 30m
Waning Gibbous, 69% of the Moon is Illuminated
Aug 26
Waning Gibbous
Aug 28
Last Quarter
Sep 5
New
Sep 12
First Quarter
Sep 19
Full

Hourly Weather History & Observations

Time (EEST) Temp. Heat Index Dew Point Humidity Pressure Visibility Wind Dir Wind Speed Gust Speed Precip Events Conditions
12:00 AM 72 °F - 55 °F 45% 29.85 in 6 mi ENE 6.7 mph - -  
12:00 AM 66.2 °F - 53.6 °F 64% 29.86 in 6.2 mi ENE 9.2 mph - N/A   Unknown
1:00 AM 71 °F - 56 °F 50% 29.86 in 6 mi ENE 6.7 mph - -  
1:00 AM 69.8 °F - 55.4 °F 60% 29.86 in 6.2 mi ENE 11.5 mph - N/A   Partly Cloudy
2:00 AM 69 °F - 58 °F 59% 29.86 in 6 mi ENE 8.9 mph - -  
2:00 AM 68.0 °F - 57.2 °F 68% 29.86 in 6.2 mi NE 11.5 mph - N/A   Unknown
3:00 AM 69 °F - 60 °F 64% 29.88 in 6 mi NW 8.9 mph - -  
3:00 AM 69.8 °F - 59.0 °F 68% 29.92 in 6.2 mi North 9.2 mph - N/A   Mostly Cloudy
4:00 AM 68 °F - 62 °F 76% 29.88 in 6 mi North 11.2 mph - -  
4:00 AM 66.2 °F - 60.8 °F 83% 29.89 in 6.2 mi NNE 13.8 mph - N/A   Scattered Clouds
5:00 AM 65 °F - 62 °F 87% 29.86 in 6 mi NNE 8.9 mph - -  
5:00 AM 64.4 °F - 60.8 °F 88% 29.86 in 6.2 mi NNE 13.8 mph - N/A   Unknown
5:30 AM 64.4 °F - 60.8 °F 88% 29.86 in 6.2 mi NE 11.5 mph - N/A   Unknown
6:00 AM 64 °F - 62 °F 92% 29.86 in 6 mi NE 6.7 mph - -   Scattered Clouds
6:00 AM 64.4 °F - 60.8 °F 88% 29.89 in 6.2 mi NE 11.5 mph - N/A   Unknown
6:30 AM 64.4 °F - 60.8 °F 88% 29.89 in 6.2 mi North 4.6 mph - N/A   Scattered Clouds
7:00 AM 62.6 °F - 60.8 °F 94% 29.89 in 5.6 mi NNE 2.3 mph - N/A   Partly Cloudy
7:30 AM 62.6 °F - 60.8 °F 94% 29.89 in 5.6 mi NNE 4.6 mph - N/A   Unknown
8:00 AM 64.4 °F - 60.8 °F 88% 29.89 in - NNE 2.3 mph - N/A   Clear
8:30 AM 66.2 °F - 60.8 °F 83% 29.92 in - NE 4.6 mph - N/A   Clear
9:00 AM 67 °F - 62 °F 81% 29.91 in 6 mi NNE 4.5 mph - -  
9:00 AM 68.0 °F - 60.8 °F 78% 29.92 in - ENE 6.9 mph - N/A   Clear
9:30 AM 69.8 °F - 60.8 °F 73% 29.92 in - ENE 9.2 mph - N/A   Clear
10:00 AM 72 °F - 63 °F 65% 29.91 in 6 mi East 6.7 mph - -   Scattered Clouds
10:00 AM 71.6 °F - 60.8 °F 69% 29.92 in - East 11.5 mph - N/A   Clear
10:30 AM 73.4 °F - 60.8 °F 65% 29.92 in - East 11.5 mph - N/A   Clear
11:00 AM 74 °F - 64 °F 62% 29.90 in 6 mi East 11.2 mph - -   Scattered Clouds
11:00 AM 75.2 °F - 62.6 °F 65% 29.92 in 6.2 mi ESE 9.2 mph - N/A   Scattered Clouds
11:30 AM 78.8 °F - 62.6 °F 57% 29.92 in 6.2 mi SE 4.6 mph - N/A   Mostly Cloudy
12:00 PM 78 °F - 64 °F 52% 29.91 in 6 mi ESE 4.5 mph - -   Scattered Clouds
12:00 PM 78.8 °F - 60.8 °F 54% 29.92 in 6.2 mi Variable 2.3 mph - N/A   Scattered Clouds
12:30 PM 78.8 °F - 60.8 °F 54% 29.92 in 6.2 mi NNE 6.9 mph - N/A   Scattered Clouds
1:00 PM 81 °F - 63 °F 44% 29.89 in 6 mi SSE 2.2 mph - -   Partly Cloudy
1:00 PM 80.6 °F 81.5 °F 60.8 °F 51% 29.92 in 6.2 mi Variable 4.6 mph - N/A   Scattered Clouds
1:30 PM 80.6 °F 81.5 °F 60.8 °F 51% 29.89 in 6.2 mi Variable 4.6 mph - N/A   Scattered Clouds
2:00 PM 84 °F - 62 °F 38% 29.88 in 6 mi NNE 2.2 mph - -   Scattered Clouds
2:00 PM 82.4 °F 82.9 °F 60.8 °F 48% 29.89 in 6.2 mi North 6.9 mph - N/A   Partly Cloudy
2:30 PM 82.4 °F 82.5 °F 59.0 °F 45% 29.89 in 6.2 mi ENE 4.6 mph - N/A   Partly Cloudy
3:00 PM 85 °F - 61 °F 35% 29.86 in 6 mi North 2.2 mph - -   Scattered Clouds
3:00 PM 84.2 °F 83.8 °F 59.0 °F 42% 29.89 in 6.2 mi Variable 2.3 mph - N/A   Partly Cloudy
3:30 PM 86.0 °F 84.9 °F 57.2 °F 37% 29.86 in 6.2 mi Variable 2.3 mph - N/A   Partly Cloudy
4:00 PM 86 °F - 60 °F 31% 29.84 in 6 mi East 4.5 mph - -   Scattered Clouds
4:00 PM 86.0 °F 84.9 °F 57.2 °F 37% 29.86 in 6.2 mi NE 4.6 mph - N/A   Partly Cloudy
4:30 PM 86.0 °F 84.9 °F 57.2 °F 37% 29.83 in - North 4.6 mph - N/A   Clear
5:00 PM 88 °F - 59 °F 28% 29.82 in 6 mi NNW 4.5 mph - -   Scattered Clouds
5:00 PM 86.0 °F 84.5 °F 55.4 °F 35% 29.83 in - East 6.9 mph - N/A   Clear
5:30 PM 87.8 °F 86.1 °F 55.4 °F 33% 29.83 in - Variable 2.3 mph - N/A   Clear
6:00 PM 88 °F - 57 °F 25% 29.80 in 6 mi NNE 2.2 mph - -   Scattered Clouds
6:00 PM 87.8 °F 86.1 °F 55.4 °F 33% 29.83 in - WNW 4.6 mph - N/A   Clear
6:30 PM 86.0 °F 84.2 °F 53.6 °F 33% 29.83 in - ENE 4.6 mph - N/A   Clear
7:00 PM 88 °F - 56 °F 23% 29.80 in 6 mi NNW 2.2 mph - -   Scattered Clouds
7:00 PM 86.0 °F - 51.8 °F 31% 29.83 in - NNE 4.6 mph - N/A   Clear
7:30 PM 82.4 °F 81.7 °F 55.4 °F 39% 29.83 in 6.2 mi North 6.9 mph - N/A   Partly Cloudy
8:00 PM 83 °F - 58 °F 31% 29.81 in 6 mi North 4.5 mph - -   Scattered Clouds
8:00 PM 80.6 °F 80.8 °F 57.2 °F 45% 29.83 in - North 6.9 mph - N/A   Clear
8:30 PM 78.8 °F - 59.0 °F 51% 29.83 in 6.2 mi NNE 6.9 mph - N/A   Mostly Cloudy
9:00 PM 80 °F - 60 °F 39% 29.81 in 6 mi NNE 4.5 mph - - Thunderstorm Thunderstorm
9:00 PM 77.0 °F - 60.8 °F 57% 29.86 in 6.2 mi NW 11.5 mph - N/A Rain Light Rain
9:30 PM 71.6 °F - 62.6 °F 73% 29.86 in 6.2 mi South 9.2 mph - N/A Rain Light Rain Showers
10:00 PM 71 °F - 65 °F 76% 29.86 in 6 mi South 6.7 mph - - Rain , Thunderstorm Thunderstorms and Rain
10:00 PM 71.6 °F - 62.6 °F 73% 29.86 in 6.2 mi East 4.6 mph - N/A   Mostly Cloudy
10:30 PM 71.6 °F - 64.4 °F 78% 29.86 in 6.2 mi NNE 6.9 mph - N/A   Mostly Cloudy
11:00 PM 71 °F - 64 °F 74% 29.84 in 6 mi NE 4.5 mph - - Thunderstorm Light Thunderstorm
11:00 PM 71.6 °F - 64.4 °F 78% 29.86 in 6.2 mi NW 6.9 mph - N/A   Mostly Cloudy
11:30 PM 68.0 °F - 62.6 °F 83% 29.86 in 5.0 mi North 16.1 mph - N/A Rain Heavy Rain Showers